CAPE
7 5 5 4 3 1 1 0 0 0 0 0 0 0 0 0 0 0 0 0 0 0 0 0 0 0 0 0 0 0 0 0 0 0 0 0 0 0 0 0 0 0 0 0 0 0 2 0 0 0 0 0 0 0 0 0 0 0 0 0 0 144 114 0 6 2 36 21 1 0 0 0 2 0 0 0 3 0 0 0 3 0 4 0 3 783 960
8 6 5 4 2 2 1 0 0 0 0 0 0 0 0 0 0 0 0 0 0 0 0 0 0 0 3 4 4 1 0 0 0 0 0 0 0 0 0 0 0 0 0 0 0 0 1 0 0 0 0 0 0 0 0 0 0 0 0 0 0 0 305 66 7 22 15 30 11 9 7 22 2 10 1 0 0 0 0 2 2 0 0 9 119 638 716
8 7 6 4 4 2 1 0 0 0 0 0 0 0 0 0 0 0 0 0 0 0 0 0 0 0 0 2 0 2 0 0 0 0 0 0 0 0 0 0 0 0 0 0 0 0 0 1 0 0 0 0 0 0 0 0 0 0 0 95 0 0 237 96 3 20 26 93 174 161 12 5 8 24 248 110 26 5 60 0 4 0 96 410 622 613 971
8 8 6 5 4 2 1 0 0 0 0 0 0 0 0 0 0 0 0 0 0 0 0 0 0 0 0 0 0 0 0 0 0 0 0 0 0 0 0 0 0 0 0 0 0 0 0 4 34 0 0 0 0 6 0 0 0 231 180 69 0 0 0 301 417 152 14 8 7 33 23 5 2 179 257 224 279 437 353 296 283 289 161 866 751 805 967
7 6 4 4 4 3 1 0 0 0 0 0 0 0 0 0 0 0 1 4 0 0 0 0 0 0 0 0 1 0 0 0 0 0 0 0 0 0 0 0 0 0 0 0 0 0 0 0 0 6 2 0 0 0 0 0 290 377 245 266 0 0 0 0 509 165 0 10 9 10 25 14 21 203 240 277 402 532 622 554 537 567 301 648 1348 1138 1019
3 3 4 4 4 2 1 0 0 0 0 0 0 0 0 0 0 0 0 0 3 0 0 0 0 0 0 0 0 0 0 0 0 0 0 0 0 0 0 0 0 0 0 0 0 0 2 0 23 0 5 2 0 0 0 0 4 203 85 0 0 0 10 237 0 19 10 24 8 11 45 23 261 158 199 275 452 561 613 589 469 504 198 776 1262 1044 874
3 3 3 4 4 3 2 1 0 0 0 0 0 0 0 0 0 0 0 4 1 5 8 23 2 0 20 0 0 0 0 0 0 0 0 0 0 0 0 0 0 0 0 0 0 0 3 99 9 27 10 3 37 70 29 13 0 0 0 0 0 0 39 96 4 0 0 2 4 2 24 23 201 169 183 295 521 522 519 472 485 547 715 973 1086 666 546
3 3 3 4 3 3 3 1 0 0 0 0 0 0 10 0 0 0 0 32 58 9 0 6 0 0 72 1 0 0 0 0 0 0 0 0 0 0 0 0 0 0 0 0 0 0 5 4 8 38 38 1 22 0 0 1 0 8 2 0 0 0 548 234 55 34 85 44 21 8 32 153 12 28 14 285 342 454 510 528 593 623 813 608 543 520 517
4 3 3 3 4 4 3 2 2 0 0 0 0 0 0 0 0 0 2 43 46 50 17 2 0 0 0 0 0 0 0 0 0 0 0 0 0 0 0 0 0 0 0 0 0 0 1 0 0 7 0 3 1 0 179 0 7 1 19 2 13 0 451 130 169 52 123 30 34 45 0 16 63 17 176 372 445 427 524 674 686 572 367 364 359 715 816
3 3 3 3 4 4 4 4 3 0 0 0 0 0 0 0 0 0 0 25 115 60 19 1 0 0 0 0 0 0 0 0 0 1 1 0 0 0 0 0 0 0 0 2 0 0 0 0 0 0 0 0 0 0 1 0 0 0 0 2 0 0 24 322 45 8 28 79 16 66 84 8 14 22 292 463 533 517 586 636 694 669 510 325 40 205 105
2 2 3 2 4 5 5 6 5 2 0 0 0 0 0 0 0 0 0 46 71 12 8 12 0 0 0 0 0 1 1 0 0 0 5 0 0 0 0 0 0 0 0 0 0 0 0 0 0 0 0 0 0 0 3 57 1 29 0 0 0 14 19 0 105 1 29 22 41 34 16 102 16 119 208 656 595 586 622 680 681 600 704 396 427 432 576
0 2 3 2 4 6 6 5 6 2 0 0 0 0 0 0 0 0 0 1 52 76 39 47 30 47 22 24 0 0 1 1 4 0 0 0 0 0 0 0 0 2 9 0 0 0 0 0 0 0 0 0 0 0 15 8 19 313 78 0 79 2 23 64 10 6 69 5 34 71 46 48 456 77 189 336 491 610 484 658 718 680 473 498 326 374 697
1 2 3 3 3 7 6 7 6 3 0 0 0 0 0 0 0 0 0 0 38 81 55 93 116 101 69 23 54 0 1 2 1 0 0 0 0 0 0 0 0 0 0 0 0 0 0 0 0 0 0 0 8 10 5 11 2 45 15 0 18 0 0 135 230 161 251 102 30 23 30 394 155 207 116 152 313 223 551 436 560 487 388 220 113 140 448
2 2 3 3 4 3 7 9 5 5 1 0 0 0 0 0 0 0 0 0 4 25 65 85 73 62 13 9 2 20 2 1 6 0 0 0 0 0 0 0 0 0 0 0 0 0 0 0 2 1 0 0 1 0 235 0 1 13 0 0 0 5 0 0 368 181 93 109 109 63 57 85 162 329 225 18 3 406 331 287 454 562 374 290 163 56 24
1 3 3 4 3 3 6 7 8 6 2 0 0 0 0 0 0 19 0 0 0 3 3 24 101 68 50 43 10 2 2 9 0 1 0 0 0 0 0 0 0 0 0 0 0 6 0 0 2 30 312 52 58 21 66 47 13 2 0 0 0 4 0 344 282 373 323 65 4 22 99 182 217 243 158 150 1 378 639 491 343 619 465 258 169 168 4
2 2 2 3 3 4 7 7 7 6 2 0 0 0 0 0 0 24 0 0 0 0 0 25 57 78 61 52 11 1 31 1 18 3 0 0 0 0 0 0 0 0 0 0 0 2 50 3 5 2 92 131 163 49 162 21 6 0 0 0 0 37 2 30 32 269 233 49 66 53 62 383 182 19 16 13 18 330 356 460 107 256 740 370 217 129 281
2 2 2 2 4 4 4 7 8 5 5 1 0 0 0 0 0 0 0 0 0 0 14 30 17 42 51 17 3 4 19 0 23 2 1 13 0 0 0 0 0 0 0 0 0 11 0 2 0 102 34 165 64 0 0 0 0 0 19 82 209 160 91 5 12 197 213 96 114 153 86 456 374 303 346 2 243 25 0 30 40 166 596 329 193 101 228
6 3 2 4 2 3 4 6 6 6 6 4 0 0 0 0 0 0 0 0 0 0 0 0 0 18 28 11 0 3 0 23 13 15 0 3 1 9 1 0 0 0 0 0 15 0 16 2 3 69 49 154 148 0 0 40 39 36 53 2 9 261 180 58 3 2 418 213 84 248 223 384 142 166 248 719 642 206 19 30 130 544 696 584 379 254 188
7 8 7 7 4 2 4 4 5 5 6 4 0 0 0 0 0 0 0 0 0 0 0 0 0 0 1 0 0 0 0 2 72 0 3 0 66 69 9 2 0 0 0 0 35 26 37 249 24 80 200 133 107 80 42 6 75 87 199 143 259 53 100 112 98 76 99 107 60 324 290 145 270 612 723 517 694 2 231 112 489 734 784 717 550 200 44
6 10 11 8 6 4 2 4 5 5 7 4 0 0 0 0 0 0 0 0 0 0 0 0 0 0 0 0 0 0 1 2 16 5 11 27 221 9 8 0 0 0 0 0 0 0 96 241 214 85 17 89 288 171 76 114 13 175 102 162 70 86 152 51 99 174 259 252 160 131 278 425 446 799 510 538 445 312 695 807 974 647 888 825 519 433 199
6 6 6 9 8 4 3 9 9 10 7 3 0 1 0 0 0 74 5 20 11 0 0 0 0 0 0 0 0 0 0 15 108 6 30 58 230 36 5 48 217 0 48 11 11 50 12 20 322 151 12 88 59 142 70 90 150 0 146 128 62 186 411 267 177 113 36 137 231 316 390 455 488 526 591 681 770 834 1007 897 886 942 806 621 571 588 489
6 6 6 8 6 5 8 12 15 8 5 2 0 2 0 0 0 0 0 0 0 0 0 0 0 0 0 0 0 0 0 2 0 6 86 30 160 92 137 152 243 82 143 88 51 100 65 164 234 140 256 154 167 275 601 70 48 34 420 25 166 130 371 370 227 324 434 103 277 268 356 206 328 598 731 884 923 960 900 982 1017 909 803 941 857 622 606
8 8 7 6 6 7 9 14 13 6 3 2 1 4 6 0 0 0 0 0 0 0 0 0 0 0 0 0 0 0 1 18 4 12 21 16 144 130 118 21 106 169 229 334 544 312 250 143 139 195 405 580 190 237 324 170 297 108 308 233 64 419 772 520 374 304 331 386 413 439 124 78 118 341 629 797 854 928 959 943 1070 1021 856 882 810 583 449
7 8 8 6 9 8 8 11 9 6 3 3 0 6 4 0 0 0 0 11 0 0 20 28 0 0 0 0 0 0 0 10 64 20 0 2 0 88 60 44 6 55 363 844 481 464 716 352 441 324 227 533 428 93 223 150 161 265 122 172 58 6 18 359 381 276 263 328 385 171 231 171 123 184 423 660 834 926 1042 990 956 1026 1086 1075 872 460 444
6 7 5 6 8 6 6 5 8 4 1 0 4 4 2 0 0 0 0 5 139 11 2 2 0 6 0 0 0 0 0 3 0 8 1 10 0 0 7 98 177 331 467 214 201 111 232 180 159 154 65 192 292 106 253 135 338 356 92 67 320 16 1 201 147 241 222 296 422 195 282 279 195 101 175 449 612 739 976 1076 998 958 938 847 836 818 729
7 6 6 7 7 4 1 2 3 3 1 1 7 12 11 11 0 0 0 0 1 1 70 141 100 92 8 0 0 0 0 0 0 1 0 0 0 0 131 127 501 110 153 180 425 207 314 279 116 174 62 288 58 89 414 499 346 480 275 216 157 14 184 616 398 284 282 432 437 297 198 187 125 107 109 325 518 521 598 669 713 846 833 794 796 809 788
9 11 11 10 9 5 3 3 5 6 4 1 13 12 7 1 0 0 0 0 0 9 134 121 58 91 48 0 0 4 22 0 0 0 0 0 0 8 9 2 27 220 162 188 61 152 108 53 75 175 94 305 47 142 548 544 397 172 180 186 220 188 501 330 383 181 209 602 239 202 131 112 117 121 132 129 269 588 674 505 429 549 628 636 603 592 624
8 12 13 11 10 11 10 9 9 9 1 0 4 11 2 0 0 0 0 0 0 75 123 174 83 35 0 0 8 22 0 0 2 0 0 0 0 0 0 4 15 37 327 70 253 20 21 14 69 83 105 26 98 126 37 37 0 37 424 691 825 621 544 437 258 344 549 574 924 733 439 396 383 276 191 132 94 102 118 149 207 301 378 433 480 484 504
5 5 7 8 9 8 9 12 8 9 4 0 4 4 0 0 0 0 0 0 0 30 36 32 25 0 0 19 3 0 0 3 2 0 0 2 2 0 0 106 4 4 26 101 56 162 270 74 72 54 528 58 14 19 0 0 221 414 351 791 837 890 863 839 784 580 600 951 1076 722 370 208 310 275 233 338 269 169 117 100 92 89 102 120 227 346 450
8 9 8 8 7 5 9 10 8 2 1 0 1 6 2 0 0 0 0 0 7 49 50 71 11 8 7 4 33 9 5 0 0 0 1 1 2 2 0 141 84 36 74 131 133 52 112 121 50 570 689 503 118 5 5 356 460 501 564 630 757 659 838 968 842 544 605 808 685 691 458 252 161 71 113 360 465 207 60 1 16 132 214 250 228 201 317
8 10 8 7 6 5 4 8 7 5 0 0 1 1 7 14 0 0 0 0 0 87 68 43 42 40 0 0 4 8 0 6 0 0 0 0 6 1 6 11 67 30 37 53 137 344 187 146 101 601 354 170 165 66 63 312 376 400 634 947 738 699 806 783 694 671 761 740 635 662 635 398 308 276 304 299 286 227 150 93 12 120 195 157 194 249 167
11 12 11 10 7 7 6 5 5 3 3 0 1 0 26 61 48 0 0 0 0 91 159 14 2 6 0 0 12 10 6 2 0 1 4 2 60 5 124 0 290 16 27 312 410 80 102 234 367 525 416 228 56 3 0 0 434 440 428 715 558 531 726 890 749 563 622 517 448 462 397 485 405 144 64 65 81 187 236 79 86 26 114 274 222 126 65
7 9 7 7 7 5 6 3 1 4 2 0 0 0 0 0 54 26 0 0 3 89 154 67 0 25 5 25 4 0 0 30 1 0 166 13 202 1 131 1 16 45 393 0 66 258 178 187 334 558 312 424 163 0 0 318 744 502 680 651 715 797 732 726 603 638 475 487 485 327 372 356 432 308 230 105 19 0 1 5 0 0 200 132 49 124 244
5 2 3 0 3 3 2 2 0 0 0 0 0 0 0 0 0 15 73 4 10 184 130 77 78 23 20 16 4 128 2 38 134 0 124 7 277 0 246 31 335 68 52 8 387 149 284 168 383 522 534 560 238 130 65 670 628 623 696 633 734 665 569 579 575 692 482 464 563 549 564 527 446 358 325 128 0 0 0 1 0 0 0 0 7 30 17
2 1 1 0 4 5 3 1 1 2 1 1 0 18 0 0 0 0 0 20 83 45 77 111 82 126 62 32 0 71 56 18 102 4 2 111 58 242 571 390 111 12 516 2 92 145 269 229 351 427 544 449 328 155 424 653 831 652 766 709 660 577 582 568 548 518 574 572 653 435 366 216 175 237 180 168 45 2 0 0 0 0 0 0 0 0 0
4 4 3 6 7 6 5 5 2 2 2 2 8 82 0 15 58 49 36 27 218 411 130 10 40 1 11 49 20 329 4 40 92 36 12 483 27 119 140 466 196 166 476 6 138 147 113 650 119 184 321 304 308 283 673 735 628 694 671 816 657 619 483 650 590 499 276 397 456 484 400 330 352 294 181 71 4 2 0 0 0 0 0 0 0 0 0
3 5 8 10 12 4 4 2 1 0 33 2 0 0 1 88 81 56 50 75 150 170 114 144 198 68 0 0 1 144 0 75 68 28 201 282 382 332 203 290 186 270 150 276 237 302 497 766 185 211 249 244 863 1162 976 999 593 713 663 815 668 598 686 689 562 327 174 476 464 356 264 115 298 135 64 28 14 0 0 3 0 0 0 0 0 0 0
2 4 3 7 2 4 2 0 11 18 0 0 10 67 6 6 82 47 179 178 273 298 185 51 63 91 157 136 51 216 7 142 1 66 165 324 283 151 136 91 245 198 186 177 244 538 566 318 440 239 294 1375 1159 1266 1254 1266 1141 1229 1102 891 624 785 950 576 483 318 208 280 220 215 69 174 130 21 89 25 0 0 26 16 0 0 0 0 0 0 0
1 7 2 5 2 1 40 194 146 0 14 9 80 25 0 12 27 1 31 60 117 204 232 66 36 52 79 111 162 132 100 297 155 61 290 419 371 233 233 20 67 110 71 141 384 78 264 377 461 347 221 953 1079 1130 1216 1126 1305 1534 1374 1067 976 954 704 578 487 534 234 221 162 203 78 177 137 66 26 92 13 0 0 0 0 16 14 0 0 0 0
3 1 2 3 0 29 37 60 17 70 49 52 110 201 2 4 25 65 8 16 14 51 62 42 38 45 64 78 121 310 154 277 330 102 442 299 268 291 160 544 429 64 139 88 388 296 204 382 494 249 232 913 1108 1124 1119 1029 1121 981 854 1016 1125 854 687 614 580 610 663 497 532 250 273 137 52 140 141 101 2 0 1 0 0 0 0 0 0 0 0
2 0 0 2 55 30 80 66 54 91 27 33 62 74 44 24 22 157 132 4 0 2 7 16 25 2 1 9 18 41 810 522 582 649 419 521 728 147 353 228 228 183 132 48 487 195 473 118 291 76 224 1274 1210 1123 1099 1042 1032 740 633 996 897 658 595 487 494 501 345 316 473 327 114 16 1 0 0 0 0 0 0 0 0 0 0 0 0 0 0
10 0 2 1 21 59 130 45 11 49 17 68 57 9 36 66 83 20 36 54 20 4 12 0 21 2 1 0 3 0 590 594 668 575 481 517 412 248 397 188 269 210 122 370 356 280 200 151 89 198 555 1137 1420 1036 991 1050 787 935 992 932 746 590 536 397 389 369 437 382 252 153 82 15 0 0 0 0 0 0 0 0 0 0 0 0 0 0 0
1 1 0 14 67 65 50 33 35 50 4 31 0 6 14 16 80 31 14 34 70 53 401 2 8 4 0 0 0 20 649 490 591 402 514 362 281 285 188 4 83 26 250 343 188 482 79 70 20 322 832 1135 1234 972 1079 1202 989 955 905 806 668 648 534 418 378 334 300 285 180 94 12 0 0 0 0 0 0 0 0 0 0 0 0 0 0 0 0
4 2 7 21 30 72 32 9 4 2 2 0 0 0 7 30 54 24 1 38 88 87 111 66 41 0 0 0 10 466 307 145 133 364 437 534 314 239 158 119 143 362 231 233 142 68 130 104 111 903 988 1208 1250 999 1193 1112 975 932 902 838 748 629 445 404 337 307 245 87 4 0 0 0 0 0 0 0 0 0 0 0 0 0 0 0 0 0 0
3 6 17 31 5 38 3 0 8 2 0 0 0 8 14 23 42 35 53 260 114 150 121 75 8 0 36 8 2 389 327 357 118 147 311 204 303 275 140 20 523 483 190 171 96 21 66 198 828 1011 1135 1038 1004 992 1210 1116 1042 911 820 685 574 481 393 299 230 112 12 0 0 0 0 0 0 0 0 0 0 0 0 0 0 0 0 0 0 0 0
0 14 17 3 1 1 0 0 0 0 8 22 32 40 46 42 31 65 76 182 146 127 68 40 220 80 56 25 0 236 116 324 57 63 191 128 113 133 212 501 251 198 72 33 6 12 83 271 826 972 1040 1003 925 1019 1146 1132 1059 918 767 647 472 411 359 242 95 8 0 0 0 0 0 0 0 0 0 0 0 0 0 0 0 0 0 0 0 0 0
2 40 34 6 1 1 0 0 7 8 35 36 38 53 61 69 89 16 13 45 36 307 393 666 659 280 161 14 9 171 177 137 132 122 65 141 77 514 97 202 126 58 80 117 161 181 188 811 774 965 964 898 838 1026 1106 1015 948 832 791 657 475 381 336 254 47 0 0 0 0 0 0 0 0 0 0 0 0 0 0 0 0 0 0 0 0 0 0
9 11 38 3 0 0 1 10 2 7 17 32 48 46 37 62 58 60 48 462 263 461 503 330 316 250 56 23 1 20 68 99 107 59 64 290 196 148 32 92 104 138 121 175 251 226 626 826 898 860 944 899 994 990 966 911 924 867 792 588 430 318 244 125 17 0 0 0 0 0 0 0 0 0 0 0 0 0 0 0 0 0 0 0 1 4 6
10 4 9 5 8 10 11 4 0 0 10 45 38 31 25 85 65 65 842 769 825 806 817 683 579 389 203 24 0 5 48 66 19 100 221 271 135 48 92 96 114 107 194 168 388 414 792 801 915 1002 1023 1025 931 872 747 750 771 793 597 428 337 261 65 16 2 0 0 0 0 0 0 0 0 0 0 0 1 3 1 0 0 0 6 8 3 5 11
4 6 3 3 24 30 81 171 21 22 20 21 50 70 91 92 136 209 491 764 786 703 417 419 271 225 198 158 38 96 169 128 147 208 202 178 151 122 88 102 121 165 251 390 152 800 830 835 893 869 854 777 712 649 518 571 768 680 498 291 244 146 49 0 0 0 0 0 0 0 0 0 0 0 0 0 0 0 0 0 4 11 7 2 4 4 8
2 2 5 9 27 60 14 2 3 3 78 16 298 143 32 143 184 368 481 540 517 390 233 355 327 128 4 1 0 14 172 315 219 116 163 204 154 131 108 130 280 238 376 841 578 804 852 786 801 704 742 663 711 558 539 614 650 489 398 224 145 62 12 0 0 0 0 0 0 0 0 0 0 0 0 0 0 0 0 10 18 4 1 2 0 3 4
2 2 4 0 0 7 122 190 218 60 16 94 131 159 109 88 416 544 1013 560 106 126 152 215 231 52 0 0 129 148 295 168 192 209 171 161 165 190 268 349 368 586 497 454 604 686 687 788 721 755 746 790 757 745 701 619 535 371 204 115 26 2 0 0 0 0 0 0 0 0 0 0 0 0 0 0 0 2 9 16 4 4 1 2 4 8 7
Wind_Speed
nan nan nan nan nan nan nan nan nan nan nan nan nan nan nan nan nan nan nan nan nan nan nan nan nan nan nan nan nan nan nan nan nan nan nan nan nan nan nan nan nan nan nan nan nan nan nan nan nan nan nan nan nan nan nan nan nan nan nan nan nan 24 22 nan nan nan nan nan nan nan nan nan nan nan nan nan nan nan nan nan nan nan nan nan nan 26 22
nan nan nan nan nan nan nan nan nan nan nan nan nan nan nan nan nan nan nan nan nan nan nan nan nan nan nan nan nan nan nan nan nan nan nan nan nan nan nan nan nan nan nan nan nan nan nan nan nan nan nan nan nan nan nan nan nan nan nan nan nan nan 21 nan nan nan nan nan nan nan nan nan nan nan nan nan nan nan nan nan nan nan nan nan 21 22 18
nan nan nan nan nan nan nan nan nan nan nan nan nan nan nan nan nan nan nan nan nan nan nan nan nan nan nan nan nan nan nan nan nan nan nan nan nan nan nan nan nan nan nan nan nan nan nan nan nan nan nan nan nan nan nan nan nan nan nan nan nan nan 20 nan nan nan nan nan 26 24 nan nan nan nan 39 31 nan nan nan nan nan nan nan 26 25 23 20
nan nan nan nan nan nan nan nan nan nan nan nan nan nan nan nan nan nan nan nan nan nan nan nan nan nan nan nan nan nan nan nan nan nan nan nan nan nan nan nan nan nan nan nan nan nan nan nan nan nan nan nan nan nan nan nan nan 11 14 nan nan nan nan 18 20 19 nan nan nan nan nan nan nan 42 43 44 47 45 43 43 37 28 18 28 25 26 26
nan nan nan nan nan nan nan nan nan nan nan nan nan nan nan nan nan nan nan nan nan nan nan nan nan nan nan nan nan nan nan nan nan nan nan nan nan nan nan nan nan nan nan nan nan nan nan nan nan nan nan nan nan nan nan nan 20 21 12 9 nan nan nan nan 19 16 nan nan nan nan nan nan nan 47 46 43 43 45 43 41 38 27 22 25 32 32 35
nan nan nan nan nan nan nan nan nan nan nan nan nan nan nan nan nan nan nan nan nan nan nan nan nan nan nan nan nan nan nan nan nan nan nan nan nan nan nan nan nan nan nan nan nan nan nan nan nan nan nan nan nan nan nan nan nan 6 nan nan nan nan nan 25 nan nan nan nan nan nan nan nan 44 50 48 40 40 45 43 43 47 42 21 19 22 26 31
nan nan nan nan nan nan nan nan nan nan nan nan nan nan nan nan nan nan nan nan nan nan nan nan nan nan nan nan nan nan nan nan nan nan nan nan nan nan nan nan nan nan nan nan nan nan nan nan nan nan nan nan nan nan nan nan nan nan nan nan nan nan nan nan nan nan nan nan nan nan nan nan 50 52 48 41 41 45 43 42 49 45 41 30 26 29 31
nan nan nan nan nan nan nan nan nan nan nan nan nan nan nan nan nan nan nan nan nan nan nan nan nan nan nan nan nan nan nan nan nan nan nan nan nan nan nan nan nan nan nan nan nan nan nan nan nan nan nan nan nan nan nan nan nan nan nan nan nan nan 19 24 nan nan nan nan nan nan nan 48 nan nan nan 48 44 46 42 42 45 46 38 45 40 40 39
nan nan nan nan nan nan nan nan nan nan nan nan nan nan nan nan nan nan nan nan nan nan nan nan nan nan nan nan nan nan nan nan nan nan nan nan nan nan nan nan nan nan nan nan nan nan nan nan nan nan nan nan nan nan 4 nan nan nan nan nan nan nan 15 19 23 nan 22 nan nan nan nan nan nan nan 48 51 49 45 43 40 40 39 38 36 31 33 40
nan nan nan nan nan nan nan nan nan nan nan nan nan nan nan nan nan nan nan nan 13 nan nan nan nan nan nan nan nan nan nan nan nan nan nan nan nan nan nan nan nan nan nan nan nan nan nan nan nan nan nan nan nan nan nan nan nan nan nan nan nan nan nan 19 nan nan nan nan nan nan nan nan nan nan 45 46 45 40 41 43 42 44 38 34 nan 22 33
nan nan nan nan nan nan nan nan nan nan nan nan nan nan nan nan nan nan nan nan nan nan nan nan nan nan nan nan nan nan nan nan nan nan nan nan nan nan nan nan nan nan nan nan nan nan nan nan nan nan nan nan nan nan nan nan nan nan nan nan nan nan nan nan 19 nan nan nan nan nan nan 36 nan 38 46 45 47 46 46 46 46 46 46 43 36 23 25
nan nan nan nan nan nan nan nan nan nan nan nan nan nan nan nan nan nan nan nan nan nan nan nan nan nan nan nan nan nan nan nan nan nan nan nan nan nan nan nan nan nan nan nan nan nan nan nan nan nan nan nan nan nan nan nan nan 2 nan nan nan nan nan nan nan nan nan nan nan nan nan nan 31 nan 39 40 41 45 47 48 52 52 51 54 49 34 31
nan nan nan nan nan nan nan nan nan nan nan nan nan nan nan nan nan nan nan nan nan nan nan nan 15 16 nan nan nan nan nan nan nan nan nan nan nan nan nan nan nan nan nan nan nan nan nan nan nan nan nan nan nan nan nan nan nan nan nan nan nan nan nan 13 17 17 16 18 nan nan nan 23 26 30 33 32 36 44 45 48 54 55 55 54 47 40 38
nan nan nan nan nan nan nan nan nan nan nan nan nan nan nan nan nan nan nan nan nan nan nan nan nan nan nan nan nan nan nan nan nan nan nan nan nan nan nan nan nan nan nan nan nan nan nan nan nan nan nan nan nan nan 10 nan nan nan nan nan nan nan nan nan 12 13 nan 19 23 nan nan nan 28 31 32 nan nan 42 46 46 51 54 54 53 46 nan nan
nan nan nan nan nan nan nan nan nan nan nan nan nan nan nan nan nan nan nan nan nan nan nan nan 19 nan nan nan nan nan nan nan nan nan nan nan nan nan nan nan nan nan nan nan nan nan nan nan nan nan 7 nan nan nan nan nan nan nan nan nan nan nan nan 10 11 9 15 nan nan nan nan 21 23 27 27 24 nan 32 40 42 42 48 51 52 50 47 nan
nan nan nan nan nan nan nan nan nan nan nan nan nan nan nan nan nan nan nan nan nan nan nan nan nan nan nan nan nan nan nan nan nan nan nan nan nan nan nan nan nan nan nan nan nan nan nan nan nan nan nan 6 7 nan 6 nan nan nan nan nan nan nan nan nan nan 8 13 nan nan nan nan 22 21 nan nan nan nan 26 26 32 32 30 36 43 48 50 48
nan nan nan nan nan nan nan nan nan nan nan nan nan nan nan nan nan nan nan nan nan nan nan nan nan nan nan nan nan nan nan nan nan nan nan nan nan nan nan nan nan nan nan nan nan nan nan nan nan 8 nan 7 nan nan nan nan nan nan nan nan 11 10 nan nan nan 9 9 nan 18 17 nan 20 19 21 20 nan 25 nan nan nan nan 23 25 28 38 47 47
nan nan nan nan nan nan nan nan nan nan nan nan nan nan nan nan nan nan nan nan nan nan nan nan nan nan nan nan nan nan nan nan nan nan nan nan nan nan nan nan nan nan nan nan nan nan nan nan nan nan nan 7 8 nan nan nan nan nan nan nan nan 8 8 nan nan nan 13 17 nan 17 17 16 17 15 15 20 25 24 nan nan 19 22 21 20 25 34 38
nan nan nan nan nan nan nan nan nan nan nan nan nan nan nan nan nan nan nan nan nan nan nan nan nan nan nan nan nan nan nan nan nan nan nan nan nan nan nan nan nan nan nan nan nan nan nan 12 nan nan 9 5 10 nan nan nan nan nan 7 9 9 nan 7 9 nan nan nan 14 nan 16 16 13 11 11 17 17 20 nan 20 17 16 19 21 23 21 26 nan
nan nan nan nan nan nan nan nan nan nan nan nan nan nan nan nan nan nan nan nan nan nan nan nan nan nan nan nan nan nan nan nan nan nan nan nan 16 nan nan nan nan nan nan nan nan nan nan 14 13 nan nan nan 6 6 nan 5 nan 7 8 9 nan nan 10 nan nan 12 15 12 13 15 15 14 14 12 16 16 16 14 19 20 19 19 20 24 24 25 25
nan nan nan nan nan nan nan nan nan nan nan nan nan nan nan nan nan nan nan nan nan nan nan nan nan nan nan nan nan nan nan nan 25 nan nan nan 16 nan nan nan 16 nan nan nan nan nan nan nan 15 13 nan nan nan 9 nan nan 7 nan 8 8 nan 7 10 8 10 10 nan 10 12 13 13 14 13 17 15 12 15 14 15 16 18 17 20 21 23 25 26
nan nan nan nan nan nan nan nan nan nan nan nan nan nan nan nan nan nan nan nan nan nan nan nan nan nan nan nan nan nan nan nan nan nan nan nan 16 nan 18 17 16 nan 14 nan nan 13 nan 15 15 14 11 9 10 9 7 nan nan nan 6 nan 7 6 10 11 12 10 11 10 11 10 12 19 18 18 18 17 16 16 16 18 17 18 19 19 21 23 25
nan nan nan nan nan nan nan nan nan nan nan nan nan nan nan nan nan nan nan nan nan nan nan nan nan nan nan nan nan nan nan nan nan nan nan nan 19 18 17 nan 17 18 15 16 15 14 13 15 15 12 11 11 11 11 9 9 8 6 6 3 nan 6 9 12 14 15 15 14 12 12 18 nan 23 21 19 18 16 15 16 17 18 18 19 19 22 22 24
nan nan nan nan nan nan nan nan nan nan nan nan nan nan nan nan nan nan nan nan nan nan nan nan nan nan nan nan nan nan nan nan nan nan nan nan nan nan nan nan nan nan 17 14 13 15 15 15 13 13 13 12 12 nan 9 8 8 7 9 7 nan nan nan 8 11 11 12 10 7 14 16 19 20 19 18 17 16 15 15 17 17 16 17 19 21 23 23
nan nan nan nan nan nan nan nan nan nan nan nan nan nan nan nan nan nan nan nan 28 nan nan nan nan nan nan nan nan nan nan nan nan nan nan nan nan nan nan nan 19 18 16 14 16 18 17 16 15 14 nan 10 11 9 7 7 7 8 nan nan 8 nan nan 11 7 8 11 9 10 14 15 16 16 16 17 16 16 16 16 16 16 16 15 16 17 18 21
nan nan nan nan nan nan nan nan nan nan nan nan nan nan nan nan nan nan nan nan nan nan nan 26 25 nan nan nan nan nan nan nan nan nan nan nan nan nan 28 25 22 19 20 18 20 15 15 15 15 14 nan 12 nan nan 8 7 8 8 8 7 9 nan 9 9 6 9 10 10 11 13 14 15 16 16 16 14 14 15 16 16 17 17 17 16 16 16 17
nan nan nan nan nan nan nan nan nan nan nan nan nan nan nan nan nan nan nan nan nan nan 27 25 nan nan nan nan nan nan nan nan nan nan nan nan nan nan nan nan nan 23 21 19 nan 16 16 nan nan 16 nan 12 nan 10 10 7 10 9 7 6 8 11 9 8 11 12 10 8 10 13 12 10 11 14 14 15 15 13 14 15 16 16 17 17 17 17 18
nan nan nan nan nan nan nan nan nan nan nan nan nan nan nan nan nan nan nan nan nan nan 29 27 nan nan nan nan nan nan nan nan nan nan nan nan nan nan nan nan nan nan 21 nan 19 nan nan nan nan nan 14 nan nan 11 nan nan nan nan 11 8 9 13 8 8 7 10 9 8 12 15 15 12 12 12 13 16 nan 15 15 15 14 15 16 18 19 18 18
nan nan nan nan nan nan nan nan nan nan nan nan nan nan nan nan nan nan nan nan nan nan nan nan nan nan nan nan nan nan nan nan nan nan nan nan nan nan nan 28 nan nan nan 21 nan 19 17 nan nan nan 15 nan nan nan nan nan 16 13 6 9 12 10 12 15 15 17 14 12 13 14 14 13 13 14 13 14 14 15 17 nan nan nan 17 18 19 19 19
nan nan nan nan nan nan nan nan nan nan nan nan nan nan nan nan nan nan nan nan nan nan nan nan nan nan nan nan nan nan nan nan nan nan nan nan nan nan nan 25 nan nan nan 22 21 nan 18 18 nan 20 15 16 17 nan nan 16 14 12 10 12 13 13 13 13 13 16 13 14 15 17 18 16 15 nan 15 15 16 17 nan nan nan 15 17 18 19 19 19
nan nan nan nan nan nan nan nan nan nan nan nan nan nan nan nan nan nan nan nan nan nan nan nan nan nan nan nan nan nan nan nan nan nan nan nan nan nan nan nan nan nan nan nan 21 20 21 19 21 19 17 21 20 nan nan 17 14 9 9 12 12 14 16 16 15 16 18 18 18 17 16 16 16 17 17 18 20 19 17 nan nan 16 19 20 21 21 22
nan nan nan nan nan nan nan nan nan nan nan nan nan nan nan nan nan nan nan nan nan nan 28 nan nan nan nan nan nan nan nan nan nan nan nan nan nan nan 22 nan 24 nan nan 25 23 nan 19 20 22 18 18 18 nan nan nan nan 14 12 12 14 15 17 17 16 16 16 16 17 18 17 16 16 15 17 nan nan nan 19 22 nan nan nan 22 25 23 25 nan
nan nan nan nan nan nan nan nan nan nan nan nan nan nan nan nan nan nan nan nan nan nan 27 nan nan nan nan nan nan nan nan nan nan nan 18 nan 21 nan 20 nan nan nan 29 nan nan 22 22 21 21 22 19 19 21 nan nan 16 15 14 15 17 15 17 19 18 19 18 17 17 16 13 15 18 19 20 19 20 nan nan nan nan nan nan 24 30 nan 26 27
nan nan nan nan nan nan nan nan nan nan nan nan nan nan nan nan nan nan nan nan nan 23 25 nan nan nan nan nan nan 29 nan nan 22 nan 18 nan 21 nan 21 nan 26 nan nan nan 26 25 24 24 23 23 20 21 22 19 nan 16 15 18 17 17 17 19 19 19 19 19 19 20 22 23 22 22 22 21 20 22 nan nan nan nan nan nan nan nan nan nan nan
nan nan nan nan nan nan nan nan nan nan nan nan nan nan nan nan nan nan nan nan nan nan nan 21 nan 27 nan nan nan nan nan nan 20 nan nan 20 nan 20 22 25 26 nan 25 nan nan 25 24 22 24 23 20 23 22 17 17 15 17 18 17 17 18 19 19 19 19 20 20 22 23 23 23 23 22 21 22 23 nan nan nan nan nan nan nan nan nan nan nan
nan nan nan nan nan nan nan nan nan nan nan nan nan nan nan nan nan nan nan nan 23 24 22 nan nan nan nan nan nan 30 nan nan nan nan nan 21 nan 22 22 22 22 22 24 nan 25 25 22 24 25 21 23 21 18 18 18 18 19 17 17 17 18 18 16 18 20 21 21 21 23 22 23 20 22 23 25 nan nan nan nan nan nan nan nan nan nan nan nan
nan nan nan nan nan nan nan nan nan nan nan nan nan nan nan nan nan nan nan nan 24 23 22 25 25 nan nan nan nan 28 nan nan nan nan 22 21 20 21 21 22 19 21 24 23 24 23 24 26 22 22 23 20 20 20 21 19 19 19 17 17 18 18 17 20 20 21 20 20 24 22 22 22 25 26 nan nan nan nan nan nan nan nan nan nan nan nan nan
nan nan nan nan nan nan nan nan nan nan nan nan nan nan nan nan nan nan 25 22 24 24 22 nan nan nan 33 32 nan 30 nan 23 nan nan 24 25 23 24 21 nan 19 21 19 22 23 26 26 26 24 22 24 25 21 21 20 20 19 19 19 19 19 17 18 20 21 21 20 21 22 22 nan 22 27 nan nan nan nan nan nan nan nan nan nan nan nan nan nan
nan nan nan nan nan nan nan 23 24 nan nan nan nan nan nan nan nan nan nan nan 22 20 23 nan nan nan nan 30 28 26 25 23 22 nan 21 20 21 20 18 nan nan 22 nan 21 22 nan 22 24 24 24 21 21 20 19 20 21 20 19 20 19 19 19 20 20 20 20 20 19 21 22 nan 23 27 nan nan nan nan nan nan nan nan nan nan nan nan nan nan
nan nan nan nan nan nan nan nan nan nan nan nan 23 22 nan nan nan nan nan nan nan nan nan nan nan nan nan nan 29 26 23 21 18 20 24 22 20 21 18 21 19 nan 20 nan 18 22 23 23 24 21 17 19 19 20 20 20 21 20 21 20 20 20 21 21 19 20 21 22 23 25 23 25 nan 27 27 27 nan nan nan nan nan nan nan nan nan nan nan
nan nan nan nan nan nan nan nan nan nan nan nan nan nan nan nan nan 19 19 nan nan nan nan nan nan nan nan nan nan nan 25 25 22 22 21 21 22 24 22 20 19 20 19 nan 19 22 22 22 21 nan 15 18 19 19 19 19 19 20 19 19 21 21 21 21 21 22 24 24 25 26 29 nan nan nan nan nan nan nan nan nan nan nan nan nan nan nan nan
nan nan nan nan nan nan 16 nan nan nan nan nan nan nan nan nan nan nan nan nan nan nan nan nan nan nan nan nan nan nan 24 24 23 21 21 20 21 23 22 20 19 19 17 19 22 20 20 19 nan 15 17 18 18 18 18 18 19 20 21 21 22 21 21 22 24 24 24 26 28 29 nan nan nan nan nan nan nan nan nan nan nan nan nan nan nan nan nan
nan nan nan nan nan nan nan nan nan nan nan nan nan nan nan nan nan nan nan nan nan nan 20 nan nan nan nan nan nan nan 23 21 22 22 21 19 21 20 20 nan nan nan 15 18 19 21 nan nan nan 13 17 17 17 17 17 19 19 20 21 22 21 21 22 24 24 25 25 28 29 nan nan nan nan nan nan nan nan nan nan nan nan nan nan nan nan nan nan
nan nan nan nan nan nan nan nan nan nan nan nan nan nan nan nan nan nan nan nan nan nan 13 nan nan nan nan nan nan 24 22 22 21 21 22 21 19 18 17 17 17 20 21 21 18 nan 15 16 12 14 15 17 17 17 17 19 19 21 21 21 21 22 24 24 25 26 28 nan nan nan nan nan nan nan nan nan nan nan nan nan nan nan nan nan nan nan nan
nan nan nan nan nan nan nan nan nan nan nan nan nan nan nan nan nan nan nan 14 14 15 15 nan nan nan nan nan nan 21 19 20 21 19 18 18 18 17 15 nan 19 20 18 18 nan nan nan 12 15 16 16 16 16 16 16 18 19 21 22 22 22 23 24 26 26 28 nan nan nan nan nan nan nan nan nan nan nan nan nan nan nan nan nan nan nan nan nan
nan nan nan nan nan nan nan nan nan nan nan nan nan nan nan nan nan nan nan 11 14 15 nan nan 15 nan nan nan nan 17 18 21 nan nan 18 18 16 14 16 18 18 19 nan nan nan nan nan 12 14 14 15 16 17 17 17 18 20 22 22 22 21 22 24 26 nan nan nan nan nan nan nan nan nan nan nan nan nan nan nan nan nan nan nan nan nan nan nan
nan nan nan nan nan nan nan nan nan nan nan nan nan nan nan nan nan nan nan nan nan 17 19 17 16 16 17 nan nan 18 18 20 20 20 nan 17 nan 16 nan 16 13 nan nan 10 10 12 12 14 13 15 17 17 17 17 18 19 20 21 20 21 21 22 25 27 nan nan nan nan nan nan nan nan nan nan nan nan nan nan nan nan nan nan nan nan nan nan nan
nan nan nan nan nan nan nan nan nan nan nan nan nan nan nan nan nan nan nan 17 16 16 16 16 18 19 nan nan nan nan nan nan 19 nan nan 20 19 16 nan nan 12 12 11 11 11 12 12 13 14 16 16 17 17 18 19 19 20 21 21 22 23 25 27 29 nan nan nan nan nan nan nan nan nan nan nan nan nan nan nan nan nan nan nan nan nan nan nan
nan nan nan nan nan nan nan nan nan nan nan nan nan nan nan nan nan nan 17 15 15 16 16 16 15 16 16 nan nan nan nan nan nan nan 19 16 13 nan nan nan 11 11 12 14 15 14 13 14 16 18 19 18 18 19 19 19 21 21 22 22 23 26 nan nan nan nan nan nan nan nan nan nan nan nan nan nan nan nan nan nan nan nan nan nan nan nan nan
nan nan nan nan nan nan nan 9 nan nan nan nan nan nan nan nan 14 14 12 14 15 14 16 19 19 18 17 15 nan nan 19 20 18 17 15 12 12 13 nan 11 13 14 16 16 13 14 17 18 18 19 19 19 19 19 20 20 21 21 21 23 25 27 nan nan nan nan nan nan nan nan nan nan nan nan nan nan nan nan nan nan nan nan nan nan nan nan nan
nan nan nan nan nan nan nan nan nan nan nan nan 21 20 nan 21 17 15 16 15 15 14 15 16 17 19 nan nan nan nan 16 16 14 12 13 11 12 11 10 11 17 18 16 14 16 16 19 18 18 18 19 19 18 19 18 20 21 22 23 26 28 nan nan nan nan nan nan nan nan nan nan nan nan nan nan nan nan nan nan nan nan nan nan nan nan nan nan
nan nan nan nan nan nan 9 11 12 nan nan nan 18 17 18 nan 14 16 16 16 15 13 11 15 17 nan nan nan 12 15 18 16 14 11 10 11 12 10 13 16 18 16 18 18 17 18 19 19 19 19 19 19 18 18 20 22 23 24 26 29 nan nan nan nan nan nan nan nan nan nan nan nan nan nan nan nan nan nan nan nan nan nan nan nan nan nan nan
Wind_Direction
nan nan nan nan nan nan nan nan nan nan nan nan nan nan nan nan nan nan nan nan nan nan nan nan nan nan nan nan nan nan nan nan nan nan nan nan nan nan nan nan nan nan nan nan nan nan nan nan nan nan nan nan nan nan nan nan nan nan nan nan nan 197 211 nan nan nan nan nan nan nan nan nan nan nan nan nan nan nan nan nan nan nan nan nan nan 253 255
nan nan nan nan nan nan nan nan nan nan nan nan nan nan nan nan nan nan nan nan nan nan nan nan nan nan nan nan nan nan nan nan nan nan nan nan nan nan nan nan nan nan nan nan nan nan nan nan nan nan nan nan nan nan nan nan nan nan nan nan nan nan 221 nan nan nan nan nan nan nan nan nan nan nan nan nan nan nan nan nan nan nan nan nan 235 256 262
nan nan nan nan nan nan nan nan nan nan nan nan nan nan nan nan nan nan nan nan nan nan nan nan nan nan nan nan nan nan nan nan nan nan nan nan nan nan nan nan nan nan nan nan nan nan nan nan nan nan nan nan nan nan nan nan nan nan nan nan nan nan 225 nan nan nan nan nan 181 169 nan nan nan nan 189 186 nan nan nan nan nan nan nan 227 238 231 240
nan nan nan nan nan nan nan nan nan nan nan nan nan nan nan nan nan nan nan nan nan nan nan nan nan nan nan nan nan nan nan nan nan nan nan nan nan nan nan nan nan nan nan nan nan nan nan nan nan nan nan nan nan nan nan nan nan 236 228 nan nan nan nan 228 228 224 nan nan nan nan nan nan nan 181 193 191 197 204 201 191 199 192 204 234 230 257 260
nan nan nan nan nan nan nan nan nan nan nan nan nan nan nan nan nan nan nan nan nan nan nan nan nan nan nan nan nan nan nan nan nan nan nan nan nan nan nan nan nan nan nan nan nan nan nan nan nan nan nan nan nan nan nan nan 246 207 216 227 nan nan nan nan 227 228 nan nan nan nan nan nan nan 186 193 197 202 206 203 199 189 185 214 220 235 250 261
nan nan nan nan nan nan nan nan nan nan nan nan nan nan nan nan nan nan nan nan nan nan nan nan nan nan nan nan nan nan nan nan nan nan nan nan nan nan nan nan nan nan nan nan nan nan nan nan nan nan nan nan nan nan nan nan nan 259 nan nan nan nan nan 219 nan nan nan nan nan nan nan nan 188 187 196 201 202 205 210 205 198 192 205 233 250 251 253
nan nan nan nan nan nan nan nan nan nan nan nan nan nan nan nan nan nan nan nan nan nan nan nan nan nan nan nan nan nan nan nan nan nan nan nan nan nan nan nan nan nan nan nan nan nan nan nan nan nan nan nan nan nan nan nan nan nan nan nan nan nan nan nan nan nan nan nan nan nan nan nan 187 188 197 203 200 200 208 212 202 200 196 205 244 238 237
nan nan nan nan nan nan nan nan nan nan nan nan nan nan nan nan nan nan nan nan nan nan nan nan nan nan nan nan nan nan nan nan nan nan nan nan nan nan nan nan nan nan nan nan nan nan nan nan nan nan nan nan nan nan nan nan nan nan nan nan nan nan 238 223 nan nan nan nan nan nan nan 190 nan nan nan 198 199 202 203 209 206 198 202 203 205 233 231
nan nan nan nan nan nan nan nan nan nan nan nan nan nan nan nan nan nan nan nan nan nan nan nan nan nan nan nan nan nan nan nan nan nan nan nan nan nan nan nan nan nan nan nan nan nan nan nan nan nan nan nan nan nan 248 nan nan nan nan nan nan nan 250 243 237 nan 211 nan nan nan nan nan nan nan 193 193 196 202 198 203 203 205 207 214 201 214 222
nan nan nan nan nan nan nan nan nan nan nan nan nan nan nan nan nan nan nan nan 286 nan nan nan nan nan nan nan nan nan nan nan nan nan nan nan nan nan nan nan nan nan nan nan nan nan nan nan nan nan nan nan nan nan nan nan nan nan nan nan nan nan nan 246 nan nan nan nan nan nan nan nan nan nan 192 195 199 199 203 205 206 206 211 220 nan 207 214
nan nan nan nan nan nan nan nan nan nan nan nan nan nan nan nan nan nan nan nan nan nan nan nan nan nan nan nan nan nan nan nan nan nan nan nan nan nan nan nan nan nan nan nan nan nan nan nan nan nan nan nan nan nan nan nan nan nan nan nan nan nan nan nan 240 nan nan nan nan nan nan 225 nan 198 187 199 202 202 208 207 205 207 214 216 222 223 222
nan nan nan nan nan nan nan nan nan nan nan nan nan nan nan nan nan nan nan nan nan nan nan nan nan nan nan nan nan nan nan nan nan nan nan nan nan nan nan nan nan nan nan nan nan nan nan nan nan nan nan nan nan nan nan nan nan 237 nan nan nan nan nan nan nan nan nan nan nan nan nan nan 217 nan 198 205 207 207 213 213 210 211 219 221 217 224 230
nan nan nan nan nan nan nan nan nan nan nan nan nan nan nan nan nan nan nan nan nan nan nan nan 218 220 nan nan nan nan nan nan nan nan nan nan nan nan nan nan nan nan nan nan nan nan nan nan nan nan nan nan nan nan nan nan nan nan nan nan nan nan nan 238 238 231 231 222 nan nan nan 222 216 210 213 217 214 207 206 212 211 213 217 222 223 228 234
nan nan nan nan nan nan nan nan nan nan nan nan nan nan nan nan nan nan nan nan nan nan nan nan nan nan nan nan nan nan nan nan nan nan nan nan nan nan nan nan nan nan nan nan nan nan nan nan nan nan nan nan nan nan 224 nan nan nan nan nan nan nan nan nan 241 231 nan 223 231 nan nan nan 218 219 216 nan nan 208 213 215 213 215 218 221 230 nan nan
nan nan nan nan nan nan nan nan nan nan nan nan nan nan nan nan nan nan nan nan nan nan nan nan 229 nan nan nan nan nan nan nan nan nan nan nan nan nan nan nan nan nan nan nan nan nan nan nan nan nan 263 nan nan nan nan nan nan nan nan nan nan nan nan 239 244 222 233 nan nan nan nan 233 223 220 212 210 nan 210 214 220 219 220 223 223 229 238 nan
nan nan nan nan nan nan nan nan nan nan nan nan nan nan nan nan nan nan nan nan nan nan nan nan nan nan nan nan nan nan nan nan nan nan nan nan nan nan nan nan nan nan nan nan nan nan nan nan nan nan nan 267 259 nan 251 nan nan nan nan nan nan nan nan nan nan 232 225 nan nan nan nan 240 240 nan nan nan nan 230 220 222 222 219 228 229 230 231 235
nan nan nan nan nan nan nan nan nan nan nan nan nan nan nan nan nan nan nan nan nan nan nan nan nan nan nan nan nan nan nan nan nan nan nan nan nan nan nan nan nan nan nan nan nan nan nan nan nan 274 nan 260 nan nan nan nan nan nan nan nan 232 243 nan nan nan 243 226 nan 232 237 nan 243 245 244 242 nan 234 nan nan nan nan 227 229 232 226 224 226
nan nan nan nan nan nan nan nan nan nan nan nan nan nan nan nan nan nan nan nan nan nan nan nan nan nan nan nan nan nan nan nan nan nan nan nan nan nan nan nan nan nan nan nan nan nan nan nan nan nan nan 257 238 nan nan nan nan nan nan nan nan 252 218 nan nan nan 240 240 nan 235 241 241 230 230 238 236 237 248 nan nan 238 233 224 229 224 222 221
nan nan nan nan nan nan nan nan nan nan nan nan nan nan nan nan nan nan nan nan nan nan nan nan nan nan nan nan nan nan nan nan nan nan nan nan nan nan nan nan nan nan nan nan nan nan nan 248 nan nan 254 225 245 nan nan nan nan nan 253 253 252 nan 234 225 nan nan nan 231 nan 231 240 239 217 221 237 226 241 nan 260 250 237 235 231 230 230 231 nan
nan nan nan nan nan nan nan nan nan nan nan nan nan nan nan nan nan nan nan nan nan nan nan nan nan nan nan nan nan nan nan nan nan nan nan nan 217 nan nan nan nan nan nan nan nan nan nan 250 250 nan nan nan 288 261 nan 249 nan 255 253 252 nan nan 258 nan nan 245 241 235 240 230 231 227 218 226 236 224 251 249 246 240 236 238 233 239 237 240 238
nan nan nan nan nan nan nan nan nan nan nan nan nan nan nan nan nan nan nan nan nan nan nan nan nan nan nan nan nan nan nan nan 267 nan nan nan 233 nan nan nan 229 nan nan nan nan nan nan nan 251 251 nan nan nan 258 nan nan 241 nan 267 259 nan 255 264 261 257 253 nan 248 241 240 238 238 229 246 261 252 259 266 254 248 239 233 238 243 243 239 249
nan nan nan nan nan nan nan nan nan nan nan nan nan nan nan nan nan nan nan nan nan nan nan nan nan nan nan nan nan nan nan nan nan nan nan nan 238 nan 231 233 240 nan 241 nan nan 233 nan 234 251 255 250 241 249 254 255 nan nan nan 272 nan 267 253 256 260 259 230 246 255 254 256 250 244 240 255 265 269 269 265 257 248 243 242 235 234 245 244 244
nan nan nan nan nan nan nan nan nan nan nan nan nan nan nan nan nan nan nan nan nan nan nan nan nan nan nan nan nan nan nan nan nan nan nan nan 238 242 237 nan 234 240 233 238 236 240 239 241 240 257 251 237 244 244 235 257 272 243 252 238 nan 258 265 260 248 237 246 249 261 269 255 nan 247 250 262 269 269 267 268 262 254 244 248 245 248 248 247
nan nan nan nan nan nan nan nan nan nan nan nan nan nan nan nan nan nan nan nan nan nan nan nan nan nan nan nan nan nan nan nan nan nan nan nan nan nan nan nan nan nan 240 235 234 235 235 237 244 245 241 253 256 nan 248 243 261 262 258 242 nan nan nan 265 254 281 257 257 261 262 264 260 255 255 256 257 260 263 264 264 260 254 251 249 247 252 253
nan nan nan nan nan nan nan nan nan nan nan nan nan nan nan nan nan nan nan nan 244 nan nan nan nan nan nan nan nan nan nan nan nan nan nan nan nan nan nan nan 232 242 245 234 229 225 231 226 227 233 nan 237 246 238 253 249 247 250 nan nan 241 nan nan 264 278 272 267 286 273 266 260 255 253 254 256 257 258 261 259 262 263 262 256 252 251 252 253
nan nan nan nan nan nan nan nan nan nan nan nan nan nan nan nan nan nan nan nan nan nan nan 240 232 nan nan nan nan nan nan nan nan nan nan nan nan nan 237 229 227 228 231 226 234 230 229 227 226 230 nan 243 nan nan 245 265 277 250 261 265 268 nan 262 265 254 267 272 268 266 269 269 267 263 256 254 260 265 261 260 263 266 266 265 261 255 255 261
nan nan nan nan nan nan nan nan nan nan nan nan nan nan nan nan nan nan nan nan nan nan 258 245 nan nan nan nan nan nan nan nan nan nan nan nan nan nan nan nan nan 230 232 231 nan 230 235 nan nan 226 nan 235 nan 243 245 231 245 249 236 255 269 265 259 268 271 279 272 268 281 281 277 277 266 264 265 263 264 269 270 268 266 268 271 268 264 259 257
nan nan nan nan nan nan nan nan nan nan nan nan nan nan nan nan nan nan nan nan nan nan 246 234 nan nan nan nan nan nan nan nan nan nan nan nan nan nan nan nan nan nan 237 nan 234 nan nan nan nan nan 228 nan nan 235 nan nan nan nan 225 212 240 272 270 276 283 287 280 270 269 276 279 267 265 269 268 268 nan 258 260 263 267 270 273 277 277 273 268
nan nan nan nan nan nan nan nan nan nan nan nan nan nan nan nan nan nan nan nan nan nan nan nan nan nan nan nan nan nan nan nan nan nan nan nan nan nan nan 233 nan nan nan 233 nan 229 233 nan nan nan 227 nan nan nan nan nan 245 253 249 240 244 263 279 280 277 268 269 277 277 274 273 280 273 264 262 266 273 270 266 nan nan nan 266 267 270 277 282
nan nan nan nan nan nan nan nan nan nan nan nan nan nan nan nan nan nan nan nan nan nan nan nan nan nan nan nan nan nan nan nan nan nan nan nan nan nan nan 240 nan nan nan 229 237 nan 230 223 nan 231 221 224 233 nan nan 239 250 255 253 253 252 252 254 263 273 281 281 273 272 271 276 277 276 nan 276 272 271 273 nan nan nan 267 270 269 269 265 268
nan nan nan nan nan nan nan nan nan nan nan nan nan nan nan nan nan nan nan nan nan nan nan nan nan nan nan nan nan nan nan nan nan nan nan nan nan nan nan nan nan nan nan nan 228 229 229 229 236 228 222 224 235 nan nan 246 254 268 268 273 270 266 260 258 255 259 268 271 273 272 272 278 277 277 278 283 285 283 282 nan nan 274 284 278 274 275 275
nan nan nan nan nan nan nan nan nan nan nan nan nan nan nan nan nan nan nan nan nan nan 262 nan nan nan nan nan nan nan nan nan nan nan nan nan nan nan 239 nan 216 nan nan 224 224 nan 232 229 233 238 230 227 nan nan nan nan 271 275 276 270 268 268 267 267 262 257 254 264 271 271 273 269 272 280 nan nan nan 284 293 nan nan nan 288 287 284 279 nan
nan nan nan nan nan nan nan nan nan nan nan nan nan nan nan nan nan nan nan nan nan nan 258 nan nan nan nan nan nan nan nan nan nan nan 222 nan 235 nan 228 nan nan nan 223 nan nan 226 231 234 236 231 222 228 236 nan nan 243 260 275 277 278 274 268 269 267 265 260 259 253 253 264 277 274 273 273 272 272 nan nan nan nan nan nan 289 289 nan 285 282
nan nan nan nan nan nan nan nan nan nan nan nan nan nan nan nan nan nan nan nan nan 254 254 nan nan nan nan nan nan 209 nan nan 222 nan 221 nan 235 nan 225 nan 220 nan nan nan 224 223 221 223 232 231 226 227 235 235 nan 250 269 275 276 278 275 270 266 267 265 262 259 260 259 257 268 273 276 278 278 278 nan nan nan nan nan nan nan nan nan nan nan
nan nan nan nan nan nan nan nan nan nan nan nan nan nan nan nan nan nan nan nan nan nan nan 249 nan 230 nan nan nan nan nan nan 214 nan nan 224 nan 232 224 223 212 nan 218 nan nan 222 223 231 235 235 228 236 238 240 244 262 269 274 275 279 276 273 270 267 265 265 261 261 266 268 270 274 281 283 288 291 nan nan nan nan nan nan nan nan nan nan nan
nan nan nan nan nan nan nan nan nan nan nan nan nan nan nan nan nan nan nan nan 257 250 248 nan nan nan nan nan nan 203 nan nan nan nan nan 223 nan 225 223 223 218 217 224 nan 221 227 226 228 230 226 236 234 238 243 256 270 277 277 279 278 280 276 274 274 274 269 265 266 272 275 278 280 282 286 287 nan nan nan nan nan nan nan nan nan nan nan nan
nan nan nan nan nan nan nan nan nan nan nan nan nan nan nan nan nan nan nan nan 264 258 244 229 218 nan nan nan nan 203 nan nan nan nan 225 227 225 212 218 222 223 221 218 221 222 221 220 221 233 229 237 232 233 248 267 271 280 282 282 278 276 272 270 270 272 272 272 271 272 273 278 280 280 283 nan nan nan nan nan nan nan nan nan nan nan nan nan
nan nan nan nan nan nan nan nan nan nan nan nan nan nan nan nan nan nan 262 257 258 258 245 nan nan nan 204 204 nan 197 nan 207 nan nan 223 219 219 211 209 nan 224 223 220 224 222 223 228 227 231 233 233 233 244 251 259 265 269 269 273 277 277 271 267 270 271 273 271 271 270 271 nan 277 282 nan nan nan nan nan nan nan nan nan nan nan nan nan nan
nan nan nan nan nan nan nan 278 275 nan nan nan nan nan nan nan nan nan nan nan 249 246 237 nan nan nan nan 195 194 196 207 210 205 nan 222 212 218 224 217 nan nan 217 nan 226 220 nan 225 232 234 232 234 244 248 251 255 263 267 267 271 273 270 268 268 268 270 272 274 271 275 277 nan 283 291 nan nan nan nan nan nan nan nan nan nan nan nan nan nan
nan nan nan nan nan nan nan nan nan nan nan nan 280 272 nan nan nan nan nan nan nan nan nan nan nan nan nan nan 191 195 206 211 213 217 224 213 209 220 207 214 221 nan 223 nan 224 224 225 230 229 232 236 251 251 255 257 263 268 270 269 268 268 267 268 269 271 269 269 267 275 282 281 280 nan 286 291 289 nan nan nan nan nan nan nan nan nan nan nan
nan nan nan nan nan nan nan nan nan nan nan nan nan nan nan nan nan 230 224 nan nan nan nan nan nan nan nan nan nan nan 203 219 215 217 224 220 213 218 215 218 212 220 218 nan 222 227 229 229 234 nan 240 251 257 260 259 261 266 270 271 269 271 272 271 270 270 268 269 268 267 270 272 nan nan nan nan nan nan nan nan nan nan nan nan nan nan nan nan
nan nan nan nan nan nan 285 nan nan nan nan nan nan nan nan nan nan nan nan nan nan nan nan nan nan nan nan nan nan nan 208 215 221 218 220 222 214 219 219 223 218 221 224 226 231 228 229 230 nan 227 243 254 255 260 262 262 264 266 269 271 272 272 272 272 269 268 268 270 271 272 nan nan nan nan nan nan nan nan nan nan nan nan nan nan nan nan nan
nan nan nan nan nan nan nan nan nan nan nan nan nan nan nan nan nan nan nan nan nan nan 198 nan nan nan nan nan nan nan 210 217 221 216 219 225 217 218 225 nan nan nan 221 227 228 230 nan nan nan 224 244 257 267 269 263 264 266 266 268 270 271 271 271 271 271 272 272 274 276 nan nan nan nan nan nan nan nan nan nan nan nan nan nan nan nan nan nan
nan nan nan nan nan nan nan nan nan nan nan nan nan nan nan nan nan nan nan nan nan nan 197 nan nan nan nan nan nan 211 210 211 214 220 219 221 223 224 225 223 224 220 228 225 225 nan 232 233 232 238 251 254 261 268 267 270 271 270 270 271 271 272 272 272 272 274 275 nan nan nan nan nan nan nan nan nan nan nan nan nan nan nan nan nan nan nan nan
nan nan nan nan nan nan nan nan nan nan nan nan nan nan nan nan nan nan nan 189 184 186 194 nan nan nan nan nan nan 213 211 214 217 216 222 218 220 222 221 nan 225 221 226 231 nan nan nan 228 240 253 262 265 267 270 268 272 275 278 278 278 279 280 280 280 279 278 nan nan nan nan nan nan nan nan nan nan nan nan nan nan nan nan nan nan nan nan nan
nan nan nan nan nan nan nan nan nan nan nan nan nan nan nan nan nan nan nan 196 179 174 nan nan 183 nan nan nan nan 217 210 214 nan nan 215 216 217 223 219 224 227 222 nan nan nan nan nan 240 257 265 271 274 274 272 272 270 273 275 282 287 288 288 288 287 nan nan nan nan nan nan nan nan nan nan nan nan nan nan nan nan nan nan nan nan nan nan nan
nan nan nan nan nan nan nan nan nan nan nan nan nan nan nan nan nan nan nan nan nan 185 188 184 189 198 198 nan nan 215 209 212 208 211 nan 213 nan 216 nan 219 222 nan nan 232 226 230 233 246 259 266 270 272 276 277 279 280 281 285 288 289 292 293 293 293 nan nan nan nan nan nan nan nan nan nan nan nan nan nan nan nan nan nan nan nan nan nan nan
nan nan nan nan nan nan nan nan nan nan nan nan nan nan nan nan nan nan nan 189 188 189 201 200 194 194 nan nan nan nan nan nan 206 nan nan 214 206 210 nan nan 220 228 229 225 232 242 240 257 266 273 275 279 281 283 284 285 287 291 291 294 297 296 296 297 nan nan nan nan nan nan nan nan nan nan nan nan nan nan nan nan nan nan nan nan nan nan nan
nan nan nan nan nan nan nan nan nan nan nan nan nan nan nan nan nan nan 187 182 191 198 198 204 206 204 192 nan nan nan nan nan nan nan 206 212 218 nan nan nan 231 228 232 229 226 240 249 254 261 268 273 276 277 281 284 287 290 293 295 297 296 295 nan nan nan nan nan nan nan nan nan nan nan nan nan nan nan nan nan nan nan nan nan nan nan nan nan
nan nan nan nan nan nan nan 175 nan nan nan nan nan nan nan nan 169 190 183 183 194 203 202 210 212 212 192 189 nan nan 200 191 197 206 205 211 214 220 nan 217 230 230 232 234 233 249 255 258 261 267 272 276 281 287 292 295 293 293 295 294 292 293 nan nan nan nan nan nan nan nan nan nan nan nan nan nan nan nan nan nan nan nan nan nan nan nan nan
nan nan nan nan nan nan nan nan nan nan nan nan 187 178 nan 172 171 189 193 193 188 197 206 210 207 204 nan nan nan nan 200 204 198 205 205 209 220 217 227 230 233 234 223 237 257 255 260 262 267 271 275 281 286 291 291 292 293 293 293 293 292 nan nan nan nan nan nan nan nan nan nan nan nan nan nan nan nan nan nan nan nan nan nan nan nan nan nan
nan nan nan nan nan nan 152 163 169 nan nan nan 178 184 177 nan 179 189 200 214 209 184 193 214 208 nan nan nan 213 207 204 203 201 203 203 209 218 220 227 238 241 232 234 234 246 253 259 257 261 268 274 281 284 285 285 287 289 292 294 295 nan nan nan nan nan nan nan nan nan nan nan nan nan nan nan nan nan nan nan nan nan nan nan nan nan nan nan